Home   Weather   Fevik   Past weeks

Flag for Norway Past Weather in Fevik, Norway — Yesterday and Last 2 Weeks

Now
40 °F

Chilly.


Feels Like: 32 °F
Forecast: 36 / 42 °F
Wind: 13 mph from South

Location: Torungen Fyr

Current Time: Feb 28, 2017 at 4:14:42 am

Latest Report: Feb 28, 2017 at 3:00 am


Visibility: N/A

Pressure: 28.88 "Hg

Humidity: 99%

Dew Point: 40 °F

Location of FevikLocation

Past Weather in Fevik — Graph

°F

Fevik Temperature Yesterday

Maximum temperature yesterday: 40 °F (at 10:00 pm)
Minimum temperature yesterday: 37 °F (at 11:00 am)
Average temperature yesterday: 39 °F

High & Low Weather Summary for the Past Weeks

 TemperatureHumidityPressure
High49 °F (Feb 21, 2:00 pm)100% (Feb 17, 5:00 pm)30.76 "Hg (Feb 17, 5:00 pm)
Low20 °F (Feb 13, 6:00 am)32% (Feb 24, 1:00 pm)28.73 "Hg (Feb 22, 6:00 pm)
Average35 °F86%29.73 "Hg
* Reported Feb 13 2:00 am — Feb 28 2:00 am, Fevik, Weather by CustomWeather, © 2017

Note: Actual official high and low records may vary slightly from our data, if they occured in-between our weather recording intervals... More about our weather records

Advertising

Fevik Weather History for the Previous 24 Hours

Scroll right to see more
 ConditionsComfort  
Time TempWeatherWind HumidityBarometerVisibility
2:00 am
Tue, Feb 28
40 °FQuite cool.9 mph99%28.91 "HgN/A
1:00 am39 °FChilly.10 mph99%28.97 "HgN/A
12:00 am40 °FChilly.9 mph99%29.03 "HgN/A
11:00 pm
Mon, Feb 27
40 °FChilly.9 mph99%29.06 "HgN/A
10:00 pm40 °FQuite cool.9 mph99%29.12 "HgN/A
9:00 pm39 °FChilly.8 mph99%29.15 "HgN/A
8:00 pm39 °FChilly.7 mph99%29.18 "HgN/A
7:00 pm39 °FChilly.2 mph99%29.21 "HgN/A
6:00 pm38 °FChilly.5 mph99%29.23 "HgN/A
5:00 pm38 °FChilly.3 mph99%29.26 "HgN/A
4:00 pm39 °FChilly.2 mph100%29.26 "HgN/A
3:00 pm39 °FChilly.2 mph99%29.29 "HgN/A
2:00 pm39 °FChilly.5 mph100%29.32 "HgN/A
1:00 pm39 °FChilly.3 mph100%29.32 "HgN/A
12:00 pm38 °FChilly.7 mph99%29.35 "HgN/A
11:00 am37 °FChilly.6 mph99%29.32 "HgN/A
10:00 am38 °FChilly.6 mph99%29.32 "HgN/A
9:00 am39 °FChilly.9 mph100%29.32 "HgN/A
8:00 am39 °FChilly.9 mph99%29.29 "HgN/A
7:00 am40 °FChilly.10 mph100%29.29 "HgN/A
6:00 am40 °FChilly.12 mph100%29.29 "HgN/A
5:00 am39 °FChilly.10 mph99%29.29 "HgN/A
4:00 am40 °FChilly.13 mph100%29.29 "HgN/A
Weather by CustomWeather, © 2017

See weather overviewHow to use our weather pages